Location: Newark
(29.9790°N, 31.1340°E)
Time: 21:00:52
(UTC+00:00)

Vanguard 3 - Pass Details

Date: 21 January 2020
Orbit: 508 x 3263 km, 33.3° (Epoch: 25 February)

Event Time Altitude Azimuth Distance (km) Brightness Sun altitude
Rises 18:45:50 0° 270° (W) 7,151 12.8 -43.7°
Reaches altitude 10° 18:51:00 10° 272° (W) 5,960 12.1 -44.8°
Enters shadow 19:06:39 68° 305° (NW) 2,472 9.4 -48.2°
